Weather History for Morrisville, VT

Change the Weather History Date:

Wednesday, February 13, 2013

  Actual Average Record
Temperature  
Mean Temperature 31 °F 18 °F  
Max Temperature 34 °F 30 °F 39 °F (2011)
Min Temperature 27 °F 6 °F -18 °F (2003)
Degree Days  
Heating Degree Days 34 47  
Month to date heating degree days 636 628  
Since 1 July heating degree days 4949 5290  
Cooling Degree Days 0 0  
Month to date cooling degree days 0 0  
Year to date cooling degree days 0 0  
Moisture  
Dew Point 23 °F    
Average Humidity 73    
Maximum Humidity 85    
Minimum Humidity 61    
Precipitation  
Precipitation T in 0.07 in 0.51 in (2008)
Month to date precipitation 0.67 0.80  
Year to date precipitation 2.22 3.34  
Sea Level Pressure  
Sea Level Pressure 29.81 in    
Wind  
Wind Speed 1 mph (South)    
Max Wind Speed 8 mph    
Max Gust Speed 10 mph    
Visibility 9 miles    
Events Snow    
T = Trace of Precipitation, MM = Missing Value Source: NWS Daily Summary

Daily Weather History Graph

Daily Weather History Graph

Search for Another Location

Airport:

Trip Planner

Search our weather history database for the weather conditions in past years. The results will help you decide how hot, cold, wet, or windy it might be!

Date:

Astronomy

Feb. 13, 2013 Rise Set
Actual Time 6:53 AM EST 5:16 PM EST
Civil Twilight 6:23 AM EST 5:46 PM EST
Nautical Twilight 5:48 AM EST 6:21 PM EST
Astronomical Twilight 5:15 AM EST 6:54 PM EST
Moon 8:10 AM EST (2/13) 9:29 PM EST (2/13)
Length of Visible Light 11h 23m
Length of Day
10h 23m
Waxing Crescent, 13% of the Moon is Illuminated
Feb 13
Waxing Crescent
Feb 17
First Quarter
Feb 25
Full
Mar 4
Last Quarter
Mar 11
New

Hourly Weather History & Observations

Time (EST) Temp. Windchill Dew Point Humidity Pressure Visibility Wind Dir Wind Speed Gust Speed Precip Events Conditions
12:54 AM 30.9 °F - 21.9 °F 69% 29.83 in 10.0 mi Calm Calm - 0.00 in   Overcast
1:54 AM 30.0 °F 24.1 °F 21.9 °F 72% 29.83 in 10.0 mi SSW 5.8 mph - N/A   Overcast
2:54 AM 30.0 °F 23.2 °F 21.9 °F 72% 29.83 in 10.0 mi SSW 6.9 mph - N/A   Overcast
3:38 AM 30.2 °F - 21.2 °F 69% 29.80 in 10.0 mi Calm Calm - N/A   Overcast
3:54 AM 30.0 °F - 21.9 °F 72% 29.84 in 10.0 mi Calm Calm - N/A   Overcast
4:54 AM 28.9 °F 25.2 °F 23.0 °F 78% 29.84 in 7.0 mi South 3.5 mph - 0.00 in Snow Light Snow
5:03 AM 28.4 °F 23.3 °F 23.0 °F 80% 29.81 in 9.0 mi SSE 4.6 mph - 0.00 in   Overcast
5:46 AM 30.2 °F 25.4 °F 23.0 °F 75% 29.80 in 10.0 mi South 4.6 mph - 0.00 in   Overcast
5:54 AM 28.9 °F 23.9 °F 23.0 °F 78% 29.83 in 10.0 mi South 4.6 mph - 0.00 in   Overcast
6:50 AM 28.4 °F - 24.8 °F 86% 29.81 in 10.0 mi Calm Calm - N/A   Overcast
6:54 AM 28.9 °F - 24.1 °F 82% 29.84 in 10.0 mi Calm Calm - N/A   Overcast
7:54 AM 28.9 °F - 24.1 °F 82% 29.84 in 10.0 mi Calm Calm - N/A   Overcast
8:28 AM 30.2 °F - 24.8 °F 80% 29.81 in 10.0 mi Calm Calm - N/A   Overcast
8:54 AM 30.0 °F - 25.0 °F 82% 29.84 in 10.0 mi Calm Calm - N/A   Overcast
9:54 AM 30.9 °F - 25.0 °F 79% 29.85 in 8.0 mi Calm Calm - 0.00 in Snow Light Snow
10:01 AM 30.2 °F 23.4 °F 24.8 °F 80% 29.82 in 9.0 mi South 6.9 mph - 0.00 in   Overcast
10:54 AM 32.0 °F - 25.0 °F 75% 29.84 in 10.0 mi Calm Calm - 0.00 in   Overcast
11:41 AM 33.8 °F 29.6 °F 24.8 °F 70% 29.79 in 10.0 mi NNE 4.6 mph - N/A   Overcast
11:54 AM 33.1 °F - 24.1 °F 70% 29.82 in 10.0 mi Calm Calm - N/A   Overcast
12:54 PM 34.0 °F - 23.0 °F 64% 29.80 in 10.0 mi Calm Calm - N/A   Overcast
1:25 PM 33.8 °F - 23.0 °F 65% 29.77 in 2.5 mi Calm Calm - 0.00 in Snow Light Snow
1:32 PM 33.8 °F - 23.0 °F 65% 29.77 in 3.0 mi Calm Calm - 0.00 in Snow Light Snow
1:54 PM 32.0 °F 28.7 °F 24.1 °F 73% 29.79 in 10.0 mi East 3.5 mph - 0.00 in   Overcast
2:54 PM 34.0 °F - 21.0 °F 59% 29.78 in 10.0 mi Calm Calm - N/A   Overcast
3:54 PM 34.0 °F - 21.0 °F 59% 29.77 in 10.0 mi Calm Calm - N/A   Overcast
4:54 PM 33.1 °F - 21.9 °F 64% 29.77 in 10.0 mi Calm Calm - N/A   Overcast
5:54 PM 30.9 °F - 21.9 °F 69% 29.78 in 10.0 mi Calm Calm - N/A   Overcast
6:54 PM 28.9 °F - 21.9 °F 75% 29.78 in 10.0 mi Calm Calm - N/A   Overcast
7:54 PM 28.9 °F - 23.0 °F 78% 29.78 in 10.0 mi Calm Calm - N/A   Overcast
8:54 PM 28.9 °F - 23.0 °F 78% 29.78 in 10.0 mi Calm Calm - N/A   Overcast
9:54 PM 28.0 °F - 23.0 °F 81% 29.79 in 10.0 mi Calm Calm - N/A   Overcast
10:54 PM 28.0 °F - 23.0 °F 81% 29.78 in 9.0 mi Calm Calm - N/A   Overcast
11:54 PM 28.0 °F - 24.1 °F 85% 29.78 in 10.0 mi Calm Calm - N/A   Overcast